Voltar ao catálogo

USA 402

AtivoMilitarVLEO
NORAD 61023·PAYLOAD·🇺🇸 United States

Lançado Sep 6, 2024 de Vandenberg Space Force Base

Loading…

Próximas Passagens (próximas 24 horas)

TLE

ObsoletoSource: Mike McCants

Época: Aug 23, 2026, 23:49 UTC

1 61023U 24160C   26235.99285214 0.00000000  00000-0  00000-0 0    06
2 61023  70.0200 201.8497 0002000 105.1940 254.8060 14.96713293    06

Acompanhe USA 402 em tempo real com AllMySat

Download on the App Store